Quillayute, WA
on Saturday, December 15, 2012

Saturday
Previous Day Next Day
Daily Summary
 ActualAverageRecord
Temperature
Mean Temperature °F 40°F  
Max Temperature 41°F 46°F 55°F (1980)
Min Temperature 36°F 34°F 21°F (1967)
Degree Days
Heating Degree Days 26 25  
Month to date heating degree days 367  
Since 1 July heating degree days 2081  
Cooling Degree Days 0 0  
Month to date cooling degree days 0  
Year to date cooling degree days 19  
Moisture
Dew Point 37°F   
Average Humidity 92    
Maximum Humidity 100    
Minimum Humidity 82    
Precipitation
Precipitation 1.19 in 0.40 in 4.61 in (1999)
Month to date precipitation 6.54  
Year to date precipitation 93.09  
Wind
Wind Speed 8 mph   
Max Wind Speed 21 mph   
Max Gust Speed 33 mph   
Visibility 3 miles   
Events Rain   

Key: T is trace of precipitation, MM is missing value
Source: NWS Daily Summary
Time(PST)TemperatureDew PointHumidity Pressure Visibility Wind DirectionWind SpeedGust SpeedPrecipitationEvents Conditions
12:53 AM 37.0°F 33.1°F 86% 29.82 in 8.0 miles East 4.6 mph - N/A   Mostly Cloudy
1:53 AM 37.9°F 34.0°F 86% 29.78 in 7.0 miles ESE 5.8 mph - 0.00 in Rain Light Rain
2:34 AM 39.2°F 35.6°F 87% 29.76 in 3.0 miles SE 10.4 mph 17.3 mph 0.01 in Rain Light Rain
2:43 AM 39.2°F 35.6°F 87% 29.76 in 4.0 miles SSE 11.5 mph 18.4 mph 0.01 in Rain Light Rain
2:53 AM 39.0°F 36.0°F 89% 29.75 in 4.0 miles SSE 9.2 mph - 0.02 in Rain Light Rain
3:32 AM 39.2°F 37.4°F 93% 29.72 in 4.0 miles SE 8.1 mph 18.4 mph 0.01 in Rain Light Rain
3:53 AM 39.9°F 37.0°F 89% 29.72 in 3.0 miles SSE 11.5 mph 17.3 mph 0.02 in Rain Light Rain
4:21 AM 39.2°F 37.4°F 93% 29.71 in 2.5 miles Variable 6.9 mph 20.7 mph 0.03 in Rain Light Rain
4:39 AM 39.2°F 37.4°F 93% 29.69 in 3.0 miles SE 8.1 mph - 0.05 in Rain Light Rain
4:50 AM 39.2°F 37.4°F 93% 29.68 in 2.5 miles SSE 9.2 mph - 0.06 in Rain Light Rain
4:53 AM 39.9°F 37.9°F 93% 29.69 in 2.5 miles SE 11.5 mph 18.4 mph 0.06 in Rain Light Rain
5:13 AM 39.2°F 37.4°F 93% 29.67 in 3.0 miles SSE 12.7 mph 20.7 mph 0.03 in Rain Light Rain
5:53 AM 39.0°F 37.9°F 96% 29.65 in 4.0 miles SSE 12.7 mph 23.0 mph 0.06 in Rain Light Rain
6:53 AM 39.0°F 37.0°F 93% 29.62 in 4.0 miles SE 9.2 mph 25.3 mph 0.06 in Rain Light Rain
7:53 AM 39.0°F 37.0°F 93% 29.59 in 3.0 miles SSE 11.5 mph 19.6 mph 0.09 in Rain Light Rain
8:33 AM 39.2°F 37.4°F 93% 29.56 in 2.5 miles SSE 9.2 mph 27.6 mph 0.06 in Rain Light Rain
8:53 AM 39.0°F 37.0°F 93% 29.55 in 2.0 miles SSE 15.0 mph 28.8 mph 0.11 in Rain Rain
9:02 AM 39.2°F 37.4°F 93% 29.53 in 1.5 miles SSE 16.1 mph 24.2 mph N/A Rain Rain
9:26 AM 37.4°F 35.6°F 93% 29.53 in 2.0 miles SSE 13.8 mph 28.8 mph 0.06 in Rain Light Rain
9:36 AM 37.4°F 37.4°F 100% 29.53 in 1.8 miles SSE 11.5 mph 25.3 mph 0.08 in Rain Light Rain
9:53 AM 39.0°F 37.0°F 93% 29.52 in 1.5 miles SE 13.8 mph 28.8 mph 0.12 in Rain Light Rain
10:53 AM 39.0°F 37.0°F 93% 29.51 in 1.8 miles South 9.2 mph 24.2 mph 0.09 in Rain Light Rain
11:10 AM 37.4°F 37.4°F 100% 29.51 in 1.0 miles South 6.9 mph - 0.05 in Rain Rain
11:18 AM 39.2°F 37.4°F 93% 29.52 in 0.8 miles South 11.5 mph 21.9 mph 0.09 in Rain Rain
11:26 AM 39.2°F 37.4°F 93% 29.51 in 1.0 miles South 8.1 mph 18.4 mph 0.12 in Rain Rain
11:53 AM 39.0°F 37.9°F 96% 29.51 in 1.2 miles SSW 10.4 mph 18.4 mph 0.17 in Rain Light Rain
12:11 PM 39.2°F 37.4°F 93% 29.50 in 1.5 miles South 9.2 mph 17.3 mph 0.01 in Rain Light Rain
12:48 PM 39.2°F 37.4°F 93% 29.50 in 1.5 miles South 9.2 mph - 0.05 in Rain Light Rain
12:53 PM 39.0°F 37.0°F 93% 29.51 in 1.5 miles Variable 6.9 mph 17.3 mph 0.06 in Rain Light Rain
1:02 PM 39.2°F 37.4°F 93% 29.49 in 2.0 miles Variable 5.8 mph - 0.00 in Rain Light Rain
1:19 PM 39.2°F 37.4°F 93% 29.48 in 4.0 miles SSE 8.1 mph - 0.01 in Rain Light Rain
1:46 PM 39.2°F 37.4°F 93% 29.48 in 5.0 miles SSE 6.9 mph - 0.01 in   Overcast
1:53 PM 39.9°F 37.9°F 93% 29.49 in 5.0 miles Calm Calm - 0.01 in   Overcast
2:12 PM 39.2°F 39.2°F 100% 29.49 in 3.0 miles SSW 3.5 mph - N/A   Overcast
2:32 PM 39.2°F 37.4°F 93% 29.49 in 3.0 miles SSE 3.5 mph - 0.00 in Rain Light Rain
2:41 PM 39.2°F 37.4°F 93% 29.49 in 1.8 miles Variable 3.5 mph - 0.01 in Rain Light Rain
2:53 PM 39.0°F 37.9°F 96% 29.50 in 2.0 miles Variable 4.6 mph - 0.03 in Rain Light Rain
2:56 PM 39.2°F 37.4°F 93% 29.50 in 3.0 miles South 3.5 mph - 0.00 in Rain Light Rain
3:04 PM 39.2°F 39.2°F 100% 29.49 in 2.0 miles Variable 3.5 mph - 0.00 in Rain Light Rain
3:09 PM 39.2°F 37.4°F 93% 29.49 in 1.2 miles Calm Calm - 0.01 in Rain Rain
3:20 PM 39.2°F 37.4°F 93% 29.50 in 2.0 miles Variable 5.8 mph - 0.03 in Rain Light Rain
3:29 PM 39.2°F 37.4°F 93% 29.50 in 1.8 miles Variable 5.8 mph - 0.03 in Rain Light Rain
3:36 PM 39.2°F 37.4°F 93% 29.50 in 0.8 miles SSW 5.8 mph - 0.05 in Rain Rain
3:39 PM 39.2°F 37.4°F 93% 29.50 in 1.0 miles Variable 3.5 mph - 0.06 in Rain Light Rain
3:44 PM 39.2°F 37.4°F 93% 29.51 in 2.0 miles West 6.9 mph - 0.07 in Rain Light Rain
3:49 PM 39.2°F 39.2°F 100% 29.51 in 2.0 miles Variable 3.5 mph - 0.07 in Rain Light Rain
3:53 PM 39.9°F 39.0°F 97% 29.51 in 1.8 miles Calm Calm - 0.08 in Rain Rain
4:00 PM 41.0°F 37.4°F 87% 29.51 in 3.0 miles Variable 3.5 mph - 0.00 in Rain Light Rain
4:03 PM 41.0°F 37.4°F 87% 29.51 in 1.8 miles West 8.1 mph - 0.00 in Rain Light Rain
4:10 PM 41.0°F 37.4°F 87% 29.51 in 1.0 miles West 10.4 mph - 0.03 in Rain Rain
4:16 PM 41.0°F 39.2°F 93% 29.51 in 2.0 miles West 10.4 mph - 0.03 in Rain Light Rain
4:24 PM 41.0°F 39.2°F 93% 29.51 in 5.0 miles WNW 6.9 mph - 0.03 in Rain Light Rain
4:36 PM 41.0°F 39.2°F 93% 29.52 in 5.0 miles WNW 6.9 mph - 0.03 in   Overcast
4:47 PM 41.0°F 37.4°F 87% 29.53 in 2.5 miles West 15.0 mph 23.0 mph 0.03 in Rain Light Rain
4:53 PM 39.9°F 37.0°F 89% 29.53 in 2.0 miles Variable 5.8 mph 23.0 mph 0.05 in Rain Light Rain
5:00 PM 41.0°F 37.4°F 87% 29.52 in 5.0 miles West 4.6 mph - N/A Rain Light Rain
5:53 PM 41.0°F 37.9°F 89% 29.55 in 5.0 miles WNW 13.8 mph 20.7 mph 0.01 in   Mostly Cloudy
6:53 PM 41.0°F 36.0°F 82% 29.57 in 6.0 miles West 5.8 mph - 0.01 in   Haze
7:53 PM 37.9°F 37.0°F 97% 29.60 in 5.0 miles North 3.5 mph - N/A   Mostly Cloudy
8:22 PM 39.2°F 37.4°F 93% 29.60 in 5.0 miles Calm Calm - 0.01 in Rain Light Rain
8:30 PM 37.4°F 35.6°F 93% 29.60 in 6.0 miles NE 4.6 mph - 0.01 in Rain Light Rain
8:53 PM 37.0°F 37.0°F 100% 29.61 in 5.0 miles Calm Calm - 0.01 in   Mostly Cloudy
9:43 PM 37.4°F 35.6°F 93% 29.63 in 2.0 miles Calm Calm - 0.00 in Rain Rain
9:49 PM 39.2°F 35.6°F 87% 29.63 in 3.0 miles Calm Calm - 0.04 in Rain Light Rain
9:53 PM 37.9°F 36.0°F 93% 29.63 in 5.0 miles Calm Calm - 0.04 in Rain Light Rain
10:39 PM 35.6°F 35.6°F 100% 29.65 in 2.0 miles West 13.8 mph 18.4 mph 0.03 in Rain Heavy Rain
10:42 PM 37.4°F 35.6°F 93% 29.65 in 1.8 miles West 12.7 mph 18.4 mph 0.05 in Rain Heavy Rain
10:47 PM 37.4°F 35.6°F 93% 29.65 in 3.0 miles WSW 12.7 mph - 0.05 in Rain Light Rain
10:53 PM 39.0°F 36.0°F 89% 29.65 in 4.0 miles SW 12.7 mph - 0.06 in Rain Light Rain
11:29 PM 37.4°F 33.8°F 87% 29.66 in 2.0 miles WSW 9.2 mph 17.3 mph 0.03 in Rain Light Rain
11:38 PM 39.2°F 35.6°F 87% 29.66 in 7.0 miles WSW 12.7 mph - 0.03 in   Mostly Cloudy
11:53 PM 37.9°F 35.1°F 89% 29.67 in 6.0 miles SW 4.6 mph - 0.03 in   Mostly Cloudy
Moon Phase
Dec. 15 Dec. 20 Dec. 28 Jan. 04 Jan. 11
Sunrise:08:01 AM (PST) Moon Rise:09:49 AM (PST)12/15
Sunset:04:25 PM (PST) Moon Set:07:47 PM (PST)12/15

Copyright © 2014 The Weather Underground, Inc.